Regional Weather Roundup
Issued by NWS

Home | Current Version | Previous Version | Graphics & Text | Print | Product List | Glossary On
Versions: 1 2 3 4 5 6 7 8 9 10 11 12 13 14 15 16 17 18 19 20 21 22 23 24 25 26 27 28 29 30 31 32 33 34 35 36 37 38 39 40 41 42 43 44 45 46 47 48 49 50
347
ASUS43 KLSX 250610
RWRMO

WEATHER SUMMARY FOR MISSOURI
NATIONAL WEATHER SERVICE SPRINGFIELD MO
100 AM CDT WED MAY 25 2016

NOTE: "FAIR" INDICATES FEW OR NO CLOUDS BELOW 12,000 FEET WITH NO
       SIGNIFICANT WEATHER AND/OR OBSTRUCTIONS TO VISIBILITY.
       CURRENT SKY AND/OR WEATHER CONDITIONS ARE NOT AVAILABLE FOR
       CHILLICOTHE AND FARMINGTON.

MOZ001>031-035>038-043-044-053-054-250700-
...NORTHERN AND WESTERN MISSOURI...

CITY           SKY/WX    TMP DP  RH WIND       PRES   REMARKS
KANSAS CTY INT CLOUDY    70  66  87 SE10      29.91S
6HR MIN TEMP:  70; 6HR MAX TEMP:  78;

KANSAS C DTWN  CLOUDY    71  64  78 SE8       29.91R
6HR MIN TEMP:  71; 6HR MAX TEMP:  80;

LEE`S SUMMIT   CLOUDY    67  62  84 SE6       29.93R
6HR MIN TEMP:  66; 6HR MAX TEMP:  76;

ST JOSEPH      CLOUDY    72  66  81 SE9       29.88F
6HR MIN TEMP:  72; 6HR MAX TEMP:  79;

CHILLICOTHE      N/A     69  65  86 CALM      29.94S
6HR MIN TEMP:  69; 6HR MAX TEMP:  77;

KIRKSVILLE     CLOUDY    64  62  93 S6        29.96S
6HR MIN TEMP:  64; 6HR MAX TEMP:  75;


$$
MOZ066>068-077>081-088>096-101>105-250700-
...SOUTHWEST MISSOURI...

CITY           SKY/WX    TMP DP  RH WIND       PRES   REMARKS
SPRINGFIELD    PTCLDY    67  62  84 W15G24    29.96R
6HR MIN TEMP:  63; 6HR MAX TEMP:  67;

JOPLIN         CLOUDY    68  66  93 S6        29.93S
6HR MIN TEMP:  67; 6HR MAX TEMP:  75;


$$
MOZ032>034-039>042-045>050-055>058-069>072-250700-
...CENTRAL MISSOURI...

CITY           SKY/WX    TMP DP  RH WIND       PRES   REMARKS
COLUMBIA       CLOUDY    63  62  97 SE9       29.97F
6HR MIN TEMP:  63; 6HR MAX TEMP:  70;

JEFFERSON CITY CLOUDY    63  62  97 SE6       29.96F
6HR MIN TEMP:  63; 6HR MAX TEMP:  71;

ROLLA          PTCLDY    62  60  93 S9        29.97F
6HR MIN TEMP:  61; 6HR MAX TEMP:  66;

SEDALIA        CLOUDY    65  61  87 SE7       29.94F
6HR MIN TEMP:  65; 6HR MAX TEMP:  75;

WHITEMAN AFB   CLEAR     64  64 100 S6        29.92R
WARRENSBURG    CLOUDY    63  59  88 CALM      29.93R

$$
MOZ051-052-059>065-250700-
...EAST CENTRAL MISSOURI...

CITY           SKY/WX    TMP DP  RH WIND       PRES   REMARKS
ST LOUIS INTL  MOCLDY    68  62  81 S6        30.02R
6HR MIN TEMP:  68; 6HR MAX TEMP:  74;

SPIRIT OF STL  PTCLDY    62  62 100 CALM      30.00R
6HR MIN TEMP:  62; 6HR MAX TEMP:  70;

ST CHARLES     PTCLDY    65  62  90 CALM      30.01R
6HR MIN TEMP:  64; 6HR MAX TEMP:  74;


$$
MOZ072>076-082>087-097>100-106>115-250700-
...SOUTH CENTRAL AND SOUTHEAST MISSOURI...

CITY           SKY/WX    TMP DP  RH WIND       PRES   REMARKS
CAPE GIRARDEAU CLOUDY    63  62  97 CALM      30.03F
6HR MIN TEMP:  63; 6HR MAX TEMP:  69; 6HR PCP:  0.02;

FARMINGTON     CLOUDY    63  61  93 CALM      30.04S
6HR MIN TEMP:  62; 6HR MAX TEMP:  65;

POPLAR BLUFF   CLOUDY    65  62  90 SW5       30.01F
6HR MIN TEMP:  65; 6HR MAX TEMP:  68; 6HR PCP:  0.20;

WEST PLAINS    CLOUDY    62  59  90 S3        30.02F
6HR MIN TEMP:  62; 6HR MAX TEMP:  64;


$$




USA.gov is the U.S. government's official web portal to all federal, state and local government web resources and services.